User: anonymous   Login
Location: Unspecified
(0.0000°N, 0.0000°E)
Time: 19:07:28
(UTC+00:00)
Language:

STARLINK-5742 - Orbit

View from above orbital plane
View from above orbital plane
View from above satellite
View from above satellite

Ground track
Ground track

The orbit is defined by the following mean orbital elements,

1 55583U          26145.10587487 +.00000000 +00000-0 +89593-5 0 00006
2 55583  42.9961 293.3000 0001883 290.0659  69.9990 15.27586789    07
Epoch (UTC): 25 May 2026 02:32:27
Eccentricity: 0.0001883
inclination: 42.9961°
perigee height: 482 km
apogee height: 484 km
right ascension of ascending node: 293.3000°
argument of perigee: 290.0659°
revolutions per day: 15.27586789
mean anomaly at epoch: 69.9990°

The dashed part of the orbit path shows where the satellite is in the earth's shadow,  

DLR